M I D A S
Marine Information and Data Acquisition System
Tripno 859 of the Zeeleeuw from 2005-03-09 07:26:14 to 2005-03-09 16:05:02
Back to CruiseResearch ActivitiesStationsMapUnderway DataData graphs

EquipmentUnitsComments
TimeDGPSUTC
LatitudeDGPSDM.mWGS84
LongitudeDGPSDM.mWGS84
SpeedMeteo Stationm/sRelative wind speed
DirectionMeteo StationdegRelative wind direction
TemperatureMeteo Stationdeg CelciusAir temperature
PressureMeteo StationPaAtmospheric pressure
HumidityMeteo Station%Relative humidity
Missing or incorrect values are displayed as -999
Metereological data collected by the RV Zeeleeuw from 2005-03-09 07:26:29 to 2005-03-09 16:16:56
Time Latitude Longitude Speed Direction Temperature Pressure Humidity
2005-03-09 07:27 51°13.617 2°56.027 8.2 192 5 102990 83
2005-03-09 07:28 51°13.652 2°55.93 7.1 196 5.2 102990 83
2005-03-09 07:29 51°13.701 2°55.832 11.4 200 5.6 102990 83
2005-03-09 07:30 51°13.733 2°55.724 8.8 223 5.4 103010 81
2005-03-09 07:31 51°13.742 2°55.715 7.6 288 5.2 102980 81
2005-03-09 07:32 51°13.746 2°55.703 7.2 350 5.1 102990 82
2005-03-09 07:33 51°13.83 2°55.637 13.1 346 5 102980 82
2005-03-09 07:34 51°13.946 2°55.553 9.1 1 4.9 102970 82
2005-03-09 07:35 51°14.076 2°55.46 11.7 356 4.8 102960 83
2005-03-09 07:36 51°14.212 2°55.328 13.1 359 4.7 102960 84
2005-03-09 07:37 51°14.332 2°55.125 15.1 360 4.6 102970 84
2005-03-09 07:38 51°14.47 2°54.894 15.1 355 4.6 102970 85
2005-03-09 07:39 51°14.627 2°54.655 15.4 360 4.6 102950 85
2005-03-09 07:40 51°14.793 2°54.44 14.3 355 4.6 102950 85
2005-03-09 07:41 51°14.964 2°54.233 14.3 357 4.5 102960 85
2005-03-09 07:42 51°15.134 2°54.037 14.7 351 4.5 102950 86
2005-03-09 07:43 51°15.325 2°53.886 14.8 351 4.5 102960 86
2005-03-09 07:44 51°15.509 2°53.718 14.7 348 4.5 102960 86
2005-03-09 07:45 51°15.692 2°53.552 14.1 348 4.5 102960 86
2005-03-09 07:46 51°15.874 2°53.392 14.2 350 4.5 102960 86
2005-03-09 07:47 51°16.056 2°53.236 13.9 350 4.5 102950 87
2005-03-09 07:48 51°16.237 2°53.085 14.5 351 4.5 102960 87
2005-03-09 07:49 51°16.422 2°52.931 14.1 351 4.5 102970 87
2005-03-09 07:50 51°16.605 2°52.778 13.2 351 4.5 102950 87
2005-03-09 07:51 51°16.786 2°52.627 14.9 349 4.5 102950 87
2005-03-09 07:52 51°16.965 2°52.473 15.1 353 4.5 102970 86
2005-03-09 07:53 51°17.146 2°52.323 13.6 345 4.6 102970 86
2005-03-09 07:54 51°17.338 2°52.278 13.7 334 4.6 102960 86
2005-03-09 07:55 51°17.536 2°52.293 14.3 337 4.6 102920 86
2005-03-09 07:56 51°17.729 2°52.327 13.5 332 4.7 102920 85
2005-03-09 07:57 51°17.921 2°52.38 12.8 335 4.7 102920 85
2005-03-09 07:58 51°18.106 2°52.461 12.8 324 4.7 102920 85
2005-03-09 07:59 51°18.26 2°52.658 11.9 313 4.7 102920 84
2005-03-09 08:00 51°18.356 2°52.933 10.2 310 4.7 102930 84
2005-03-09 08:01 51°18.451 2°53.212 11.7 309 4.7 102960 84
2005-03-09 08:02 51°18.55 2°53.491 11.7 307 4.7 102960 84
2005-03-09 08:03 51°18.645 2°53.764 11.3 304 4.7 102970 84
2005-03-09 08:04 51°18.738 2°54.036 11.7 304 4.7 102970 84
2005-03-09 08:05 51°18.839 2°54.301 10.8 310 4.7 102960 84
2005-03-09 08:06 51°18.937 2°54.56 10.8 230 4.7 102970 85
2005-03-09 08:07 51°19.041 2°54.807 11.5 307 4.7 102960 85
2005-03-09 08:08 51°19.143 2°55.059 10.7 306 4.6 102960 85
2005-03-09 08:09 51°19.245 2°55.316 10.7 300 4.6 102970 85
2005-03-09 08:10 51°19.348 2°55.57 11.6 306 4.6 102940 85
2005-03-09 08:11 51°19.454 2°55.828 13.4 307 4.6 102920 85
2005-03-09 08:12 51°19.561 2°56.085 11 313 4.6 102930 86
2005-03-09 08:13 51°19.668 2°56.346 12 313 4.6 102920 86
2005-03-09 08:14 51°19.776 2°56.612 12.1 310 4.5 102930 86
2005-03-09 08:15 51°19.883 2°56.871 10.8 310 4.6 102920 86
2005-03-09 08:16 51°19.989 2°57.132 11.5 314 4.6 102920 86
2005-03-09 08:17 51°20.096 2°57.396 12.9 309 4.6 102920 86
2005-03-09 08:18 51°20.201 2°57.656 11.1 306 4.6 102930 86
2005-03-09 08:19 51°20.307 2°57.921 10 312 4.6 102920 87
2005-03-09 08:20 51°20.418 2°58.19 10.9 309 4.6 102920 87
2005-03-09 08:21 51°20.528 2°58.461 12.2 310 4.6 102930 87
2005-03-09 08:22 51°20.64 2°58.728 12.9 305 4.6 102920 87
2005-03-09 08:23 51°20.747 2°58.999 10.2 314 4.6 102920 87
2005-03-09 08:24 51°20.859 2°59.266 12.3 304 4.6 102920 87
2005-03-09 08:25 51°20.969 2°59.534 12.4 310 4.6 102900 87
2005-03-09 08:26 51°21.079 2°59.8 11.5 311 4.6 102910 88
2005-03-09 08:27 51°21.189 3°0.074 12 310 4.6 102910 88
2005-03-09 08:28 51°21.299 3°0.345 12.5 308 4.6 102910 88
2005-03-09 08:29 51°21.405 3°0.623 11.1 308 4.6 102910 88
2005-03-09 08:30 51°21.499 3°0.915 11.1 302 4.6 102920 88
2005-03-09 08:31 51°21.586 3°1.21 10.3 302 4.6 102910 88
2005-03-09 08:32 51°21.678 3°1.506 9.5 302 4.6 102910 88
2005-03-09 08:33 51°21.784 3°1.788 10.7 312 4.6 102910 89
2005-03-09 08:34 51°21.907 3°2.043 11.3 313 4.6 102910 89
2005-03-09 08:35 51°22.062 3°2.246 13.5 320 4.6 102900 89
2005-03-09 08:36 51°22.229 3°2.418 13.8 41 4.6 102900 89
2005-03-09 08:37 51°22.396 3°2.589 11.9 319 4.6 102900 89
2005-03-09 08:38 51°22.571 3°2.73 14.9 336 4.6 102900 89
2005-03-09 08:39 51°22.763 3°2.672 16.3 347 4.6 102900 89
2005-03-09 08:40 51°22.961 3°2.605 15.5 350 4.6 102900 89
2005-03-09 08:41 51°23.159 3°2.526 15.8 350 4.7 102900 88
2005-03-09 08:42 51°23.356 3°2.439 15.1 349 4.7 102900 88
2005-03-09 08:43 51°23.553 3°2.355 16.7 349 4.7 102900 88
2005-03-09 08:44 51°23.746 3°2.279 13.6 343 4.7 102890 88
2005-03-09 08:45 51°23.948 3°2.263 14.9 334 4.8 102900 88
2005-03-09 08:46 51°24.141 3°2.337 15 328 4.8 102890 87
2005-03-09 08:47 51°24.308 3°2.502 12.2 317 4.7 102900 87
2005-03-09 08:48 51°24.444 3°2.754 12.4 314 4.8 102890 87
2005-03-09 08:49 51°24.574 3°3.02 10.9 309 4.7 102900 87
2005-03-09 08:50 51°24.694 3°3.302 10.4 307 4.7 102900 87
2005-03-09 08:51 51°24.746 3°3.622 6.9 294 4.8 102900 87
2005-03-09 08:52 51°24.76 3°3.96 7.6 287 4.8 102900 87
2005-03-09 08:53 51°24.808 3°4.288 9.9 295 4.8 102900 87
2005-03-09 08:54 51°24.909 3°4.588 13 308 4.8 102890 87
2005-03-09 08:55 51°25.026 3°4.872 9.8 308 4.8 102890 87
2005-03-09 08:56 51°25.143 3°5.143 12.2 310 4.8 102890 87
2005-03-09 08:57 51°25.259 3°5.411 11.5 310 4.8 102890 87
2005-03-09 08:58 51°25.373 3°5.675 10.5 312 4.8 102890 87
2005-03-09 08:59 51°25.489 3°5.942 9.8 313 4.8 102890 87
2005-03-09 09:00 51°25.607 3°6.21 12.1 305 4.8 102890 87
2005-03-09 09:01 51°25.701 3°6.503 9.7 312 4.8 102900 87
2005-03-09 09:02 51°25.8 3°6.796 11.8 307 4.8 102900 87
2005-03-09 09:03 51°25.9 3°7.085 10.6 309 4.8 102900 87
2005-03-09 09:04 51°25.994 3°7.374 10.8 310 4.8 102890 87
2005-03-09 09:05 51°26.082 3°7.669 10.4 309 4.8 102890 87
2005-03-09 09:06 51°26.174 3°7.97 10.3 308 4.8 102930 87
2005-03-09 09:07 51°26.26 3°8.249 8.2 305 4.8 102890 87
2005-03-09 09:08 51°26.302 3°8.373 8.7 311 4.8 102930 88
2005-03-09 09:09 51°26.313 3°8.401 8.2 308 4.8 102930 88
2005-03-09 09:10 51°26.301 3°8.421 8.6 294 4.8 102930 88
2005-03-09 09:11 51°26.282 3°8.439 8.5 288 4.8 102940 88
2005-03-09 09:12 51°26.277 3°8.463 8.6 306 4.8 102940 88
2005-03-09 09:13 51°26.305 3°8.507 9 313 4.8 102930 88
2005-03-09 09:14 51°26.335 3°8.577 9.6 300 4.8 102930 88
2005-03-09 09:15 51°26.355 3°8.67 10.3 274 4.8 102940 88
2005-03-09 09:16 51°26.352 3°8.769 5.2 257 4.8 102940 88
2005-03-09 09:17 51°26.34 3°8.864 7.5 265 4.8 102950 88
2005-03-09 09:18 51°26.336 3°8.933 9.2 277 4.8 102940 88
2005-03-09 09:19 51°26.339 3°8.987 8.6 289 4.8 102930 88
2005-03-09 09:20 51°26.364 3°9.041 8.9 314 4.8 102930 88
2005-03-09 09:21 51°26.397 3°9.095 9.3 310 4.8 102930 88
2005-03-09 09:22 51°26.438 3°9.147 9.9 229 4.8 102930 88
2005-03-09 09:23 51°26.481 3°9.198 9.2 314 4.8 102930 88
2005-03-09 09:24 51°26.523 3°9.251 9.6 314 4.8 102930 88
2005-03-09 09:25 51°26.563 3°9.306 9.5 312 4.8 102940 88
2005-03-09 09:26 51°26.6 3°9.366 9.1 309 4.8 102930 88
2005-03-09 09:27 51°26.634 3°9.425 9.4 308 4.8 102940 88
2005-03-09 09:28 51°26.671 3°9.483 9.3 311 4.8 102930 88
2005-03-09 09:29 51°26.705 3°9.542 9.3 309 4.9 102940 88
2005-03-09 09:30 51°26.739 3°9.604 9.3 312 4.9 102950 88
2005-03-09 09:31 51°26.775 3°9.666 9 303 4.8 102940 88
2005-03-09 09:32 51°26.81 3°9.732 9.3 301 4.9 102950 88
2005-03-09 09:33 51°26.845 3°9.798 10.3 228 4.9 102940 88
2005-03-09 09:34 51°26.88 3°9.865 9.1 311 4.9 102940 88
2005-03-09 09:35 51°26.915 3°9.926 11.3 313 4.9 102940 87
2005-03-09 09:36 51°26.946 3°9.981 10.3 308 4.9 102950 87
2005-03-09 09:37 51°26.975 3°10.036 8.8 308 4.9 102950 87
2005-03-09 09:38 51°27.004 3°10.09 8.2 314 4.9 102950 87
2005-03-09 09:39 51°27.04 3°10.144 9 227 4.9 102940 87
2005-03-09 09:40 51°27.075 3°10.201 7.5 318 4.9 102960 87
2005-03-09 09:41 51°27.109 3°10.255 8.9 318 4.9 102950 88
2005-03-09 09:42 51°27.142 3°10.312 8.9 226 4.9 102950 88
2005-03-09 09:43 51°27.176 3°10.372 8.3 308 4.9 102940 88
2005-03-09 09:44 51°27.211 3°10.431 9.4 319 4.9 102950 88
2005-03-09 09:45 51°27.247 3°10.491 8.1 317 4.9 102940 88
2005-03-09 09:46 51°27.281 3°10.548 8.4 42 4.9 102950 88
2005-03-09 09:47 51°27.312 3°10.608 10.3 42 4.9 102950 87
2005-03-09 09:48 51°27.342 3°10.671 10.4 312 5 102960 87
2005-03-09 09:49 51°27.372 3°10.729 10.5 228 5 102970 87
2005-03-09 09:50 51°27.402 3°10.793 8.6 298 5 102950 87
2005-03-09 09:51 51°27.418 3°10.884 9.4 282 5 102940 87
2005-03-09 09:52 51°27.416 3°11.001 8.4 264 5 102960 87
2005-03-09 09:53 51°27.383 3°11.122 7.9 219 5 102960 87
2005-03-09 09:54 51°27.326 3°11.21 4.2 199 4.9 102970 87
2005-03-09 09:55 51°27.271 3°11.269 4.6 178 5.2 102980 88
2005-03-09 09:56 51°27.22 3°11.318 7.1 163 5.2 102970 87
2005-03-09 09:57 51°27.158 3°11.333 8 113 5 102970 87
2005-03-09 09:58 51°27.11 3°11.298 7.6 76 5 102980 87
2005-03-09 09:59 51°27.075 3°11.244 7.7 66 4.9 102960 87
2005-03-09 10:00 51°27.042 3°11.181 8.7 68 4.8 102950 88
2005-03-09 10:01 51°27.003 3°11.115 7.8 79 4.8 102950 88
2005-03-09 10:02 51°26.958 3°11.05 7.5 77 4.7 102950 88
2005-03-09 10:03 51°26.917 3°10.977 7.5 68 4.7 102950 89
2005-03-09 10:04 51°26.884 3°10.904 8.8 68 4.7 102940 89
2005-03-09 10:05 51°26.851 3°10.831 10.6 62 4.7 102950 89
2005-03-09 10:06 51°26.822 3°10.766 9.6 66 4.7 102950 90
2005-03-09 10:07 51°26.792 3°10.71 7.4 71 4.7 102960 90
2005-03-09 10:08 51°26.765 3°10.659 9.1 64 4.7 102950 90
2005-03-09 10:09 51°26.744 3°10.609 8.5 57 4.7 102960 90
2005-03-09 10:10 51°26.725 3°10.558 11.4 52 4.7 102950 90
2005-03-09 10:11 51°26.706 3°10.514 10.7 59 4.7 102950 90
2005-03-09 10:12 51°26.686 3°10.469 9.4 62 4.7 102940 90
2005-03-09 10:13 51°26.669 3°10.42 10 55 4.7 102940 90
2005-03-09 10:14 51°26.653 3°10.368 10.1 49 4.7 102940 91
2005-03-09 10:15 51°26.639 3°10.309 10.2 56 4.7 102940 91
2005-03-09 10:16 51°26.626 3°10.249 10.3 59 4.6 102940 91
2005-03-09 10:17 51°26.614 3°10.194 10.5 55 4.6 102940 91
2005-03-09 10:18 51°26.603 3°10.128 10.6 53 4.7 102930 91
2005-03-09 10:19 51°26.591 3°10.062 9.3 54 4.7 102930 91
2005-03-09 10:20 51°26.58 3°9.99 9.8 49 4.7 102930 91
2005-03-09 10:21 51°26.569 3°9.92 8.5 48 4.7 102930 91
2005-03-09 10:22 51°26.559 3°9.847 10.2 50 4.6 102930 91
2005-03-09 10:23 51°26.55 3°9.773 10.5 51 4.7 102930 92
2005-03-09 10:24 51°26.538 3°9.702 9.7 48 4.7 102940 91
2005-03-09 10:25 51°26.528 3°9.633 10.4 58 4.7 102940 91
2005-03-09 10:26 51°26.517 3°9.568 8.9 44 4.7 102930 91
2005-03-09 10:27 51°26.507 3°9.5 10 50 4.7 102930 91
2005-03-09 10:28 51°26.498 3°9.43 11.5 55 4.7 102940 91
2005-03-09 10:29 51°26.489 3°9.357 9.5 49 4.7 102930 91
2005-03-09 10:30 51°26.479 3°9.291 10.7 46 4.7 102930 91
2005-03-09 10:31 51°26.472 3°9.227 9.5 51 4.7 102930 91
2005-03-09 10:32 51°26.464 3°9.16 9.6 48 4.7 102940 91
2005-03-09 10:33 51°26.452 3°9.097 10.6 59 4.7 102930 91
2005-03-09 10:34 51°26.445 3°9.036 10.1 40 4.7 102950 92
2005-03-09 10:35 51°26.441 3°9.007 9.1 51 4.7 102950 92
2005-03-09 10:36 51°26.432 3°9.014 8.8 52 4.7 102960 92
2005-03-09 10:37 51°26.419 3°9.042 7.2 63 4.7 102950 92
2005-03-09 10:38 51°26.405 3°9.082 7.1 78 4.6 102950 92
2005-03-09 10:39 51°26.39 3°9.131 8.7 98 4.6 102940 93
2005-03-09 10:40 51°26.376 3°9.183 7.8 109 4.7 102950 93
2005-03-09 10:41 51°26.365 3°9.234 8.8 110 4.7 102950 93
2005-03-09 10:42 51°26.353 3°9.288 8.9 122 4.7 102950 93
2005-03-09 10:43 51°26.342 3°9.342 7.7 122 4.6 102960 93
2005-03-09 10:44 51°26.322 3°9.386 8 128 4.7 102950 93
2005-03-09 10:45 51°26.288 3°9.429 6.9 153 4.7 102960 93
2005-03-09 10:46 51°26.255 3°9.492 4 184 4.6 102970 93
2005-03-09 10:47 51°26.232 3°9.568 6.7 233 4.7 102970 93
2005-03-09 10:48 51°26.219 3°9.655 4.6 254 4.7 102960 93
2005-03-09 10:49 51°26.215 3°9.736 8.8 274 4.7 102960 93
2005-03-09 10:50 51°26.217 3°9.808 9.7 284 4.7 102970 93
2005-03-09 10:51 51°26.216 3°9.876 8.6 294 4.7 102960 93
2005-03-09 10:52 51°26.218 3°9.941 8.1 311 4.8 102960 93
2005-03-09 10:53 51°26.215 3°10.002 7.4 302 4.8 102960 93
2005-03-09 10:54 51°26.206 3°10.062 7 292 4.8 102970 93
2005-03-09 10:55 51°26.197 3°10.12 8.3 278 4.8 102970 93
2005-03-09 10:56 51°26.203 3°10.229 8.1 265 4.8 102960 93
2005-03-09 10:57 51°26.127 3°10.416 2.4 153 4.8 102950 92
2005-03-09 10:58 51°25.963 3°10.506 3.2 135 4.8 102950 92
2005-03-09 10:59 51°25.777 3°10.67 1.3 164 4.8 102970 92
2005-03-09 11:00 51°25.653 3°10.963 3.4 267 4.9 102950 92
2005-03-09 11:01 51°25.522 3°11.262 1.8 264 4.9 102950 92
2005-03-09 11:02 51°25.401 3°11.574 2.7 280 5 102950 92
2005-03-09 11:03 51°25.3 3°11.906 3.6 274 5 102940 92
2005-03-09 11:04 51°25.209 3°12.255 3.4 283 5 102950 92
2005-03-09 11:05 51°25.138 3°12.564 4 259 5.1 102970 91
2005-03-09 11:06 51°25.097 3°12.789 4.1 249 5 102980 91
2005-03-09 11:07 51°25.087 3°12.965 5.8 265 4.9 102970 91
2005-03-09 11:08 51°25.086 3°13.093 5.7 259 4.9 102980 91
2005-03-09 11:09 51°25.086 3°13.202 7.2 261 4.8 102980 91
2005-03-09 11:10 51°25.089 3°13.316 5.2 260 4.8 102970 91
2005-03-09 11:11 51°25.088 3°13.446 5.2 248 4.8 102980 91
2005-03-09 11:12 51°25.082 3°13.577 5.3 252 4.8 102980 91
2005-03-09 11:13 51°25.082 3°13.704 4.9 256 4.7 102970 91
2005-03-09 11:14 51°25.079 3°13.826 4.9 256 4.7 102980 91
2005-03-09 11:15 51°25.076 3°13.946 4.9 252 4.7 102970 91
2005-03-09 11:16 51°25.074 3°14.052 5.6 251 4.7 102960 92
2005-03-09 11:17 51°25.074 3°14.153 4.6 259 4.7 102970 92
2005-03-09 11:18 51°25.075 3°14.251 6 250 4.7 102950 92
2005-03-09 11:19 51°25.071 3°14.346 4.8 240 4.7 102960 92
2005-03-09 11:20 51°25.073 3°14.442 3.9 257 4.7 102950 92
2005-03-09 11:21 51°25.077 3°14.534 6.5 265 4.7 102970 92
2005-03-09 11:22 51°25.08 3°14.625 6.3 266 4.8 102970 92
2005-03-09 11:23 51°25.086 3°14.716 7.1 278 4.8 102970 92
2005-03-09 11:24 51°25.092 3°14.806 7.2 278 4.8 102970 92
2005-03-09 11:25 51°25.099 3°14.895 7.6 279 4.9 102970 92
2005-03-09 11:26 51°25.107 3°14.985 6.7 285 4.8 102970 92
2005-03-09 11:27 51°25.115 3°15.075 7.6 279 4.9 102970 91
2005-03-09 11:28 51°25.124 3°15.165 8.3 287 4.9 102970 91
2005-03-09 11:29 51°25.134 3°15.251 7.5 283 5 102970 91
2005-03-09 11:30 51°25.145 3°15.341 8.1 289 5 102960 91
2005-03-09 11:31 51°25.154 3°15.43 7.4 288 5 102970 91
2005-03-09 11:32 51°25.164 3°15.515 7.8 289 5 102960 90
2005-03-09 11:33 51°25.175 3°15.6 8.3 286 5.1 102970 90
2005-03-09 11:34 51°25.185 3°15.684 8.3 285 5.1 102970 90
2005-03-09 11:35 51°25.195 3°15.768 8 290 5.1 102980 90
2005-03-09 11:36 51°25.206 3°15.853 7 285 5.1 102970 90
2005-03-09 11:37 51°25.216 3°15.936 7.6 271 5.1 102970 90
2005-03-09 11:38 51°25.225 3°16.021 8.2 288 5.2 102980 89
2005-03-09 11:39 51°25.235 3°16.108 8.4 288 5.1 102980 89
2005-03-09 11:40 51°25.246 3°16.194 5.7 288 5.1 102970 89
2005-03-09 11:41 51°25.259 3°16.28 6.2 295 5.1 102980 89
2005-03-09 11:42 51°25.272 3°16.366 6 292 5 102980 89
2005-03-09 11:43 51°25.285 3°16.45 6.5 288 5 102980 89
2005-03-09 11:44 51°25.298 3°16.534 6.8 286 5 102970 89
2005-03-09 11:45 51°25.309 3°16.619 7.2 279 5 102970 89
2005-03-09 11:46 51°25.318 3°16.706 5.5 260 5 102970 89
2005-03-09 11:47 51°25.318 3°16.808 5.5 231 4.9 102980 90
2005-03-09 11:48 51°25.286 3°16.905 5.3 134 4.9 102990 90
2005-03-09 11:49 51°25.249 3°16.945 6.3 119 4.8 102990 90
2005-03-09 11:50 51°25.223 3°16.968 6.1 75 4.8 103000 90
2005-03-09 11:51 51°25.219 3°16.943 7.7 50 4.7 102970 91
2005-03-09 11:52 51°25.216 3°16.948 6.6 66 4.7 102970 91
2005-03-09 11:53 51°25.212 3°16.956 9.1 57 4.6 102980 92
2005-03-09 11:54 51°25.212 3°16.895 10.1 46 4.6 102970 92
2005-03-09 11:55 51°25.226 3°16.812 9.9 44 4.6 102950 92
2005-03-09 11:56 51°25.241 3°16.737 9.5 35 4.6 102960 93
2005-03-09 11:57 51°25.261 3°16.661 9 39 4.6 102950 93
2005-03-09 11:58 51°25.271 3°16.587 9.2 50 4.6 102940 93
2005-03-09 11:59 51°25.263 3°16.515 9.1 58 4.5 102950 94
2005-03-09 12:00 51°25.251 3°16.44 9.6 59 4.6 102950 94
2005-03-09 12:01 51°25.239 3°16.367 8.5 61 4.6 102950 94
2005-03-09 12:02 51°25.231 3°16.295 8.1 60 4.6 102960 94
2005-03-09 12:03 51°25.224 3°16.225 10.4 57 4.6 102970 94
2005-03-09 12:04 51°25.218 3°16.155 8.3 52 4.6 102950 94
2005-03-09 12:05 51°25.214 3°16.086 8.8 63 4.6 102950 95
2005-03-09 12:06 51°25.211 3°16.018 9.8 54 4.6 102950 95
2005-03-09 12:07 51°25.206 3°15.945 9.4 52 4.6 102950 95
2005-03-09 12:08 51°25.203 3°15.871 10 59 4.6 102950 95
2005-03-09 12:09 51°25.197 3°15.794 9.1 58 4.6 102960 95
2005-03-09 12:10 51°25.192 3°15.715 8.7 55 4.6 102950 95
2005-03-09 12:11 51°25.187 3°15.634 9.9 58 4.6 102950 95
2005-03-09 12:12 51°25.182 3°15.559 8.4 53 4.6 102960 95
2005-03-09 12:13 51°25.177 3°15.486 10.3 53 4.6 102960 95
2005-03-09 12:14 51°25.171 3°15.416 9.4 61 4.7 102950 95
2005-03-09 12:15 51°25.165 3°15.345 9.2 50 4.7 102950 95
2005-03-09 12:16 51°25.16 3°15.279 9.9 59 4.7 102950 95
2005-03-09 12:17 51°25.156 3°15.214 10.2 59 4.7 102950 95
2005-03-09 12:18 51°25.155 3°15.149 9.5 55 4.7 102960 94
2005-03-09 12:19 51°25.155 3°15.081 9.2 59 4.7 102950 94
2005-03-09 12:20 51°25.154 3°15.011 9.1 55 4.7 102960 94
2005-03-09 12:21 51°25.153 3°14.938 9 53 4.7 102960 94
2005-03-09 12:22 51°25.15 3°14.868 8.8 46 4.7 102960 94
2005-03-09 12:23 51°25.148 3°14.795 7.8 50 4.7 102970 94
2005-03-09 12:24 51°25.146 3°14.723 7.8 47 4.7 102970 94
2005-03-09 12:25 51°25.146 3°14.647 8.5 53 4.7 102960 94
2005-03-09 12:26 51°25.146 3°14.568 9.3 55 4.7 102960 94
2005-03-09 12:27 51°25.144 3°14.492 9.1 56 4.7 102960 94
2005-03-09 12:28 51°25.143 3°14.418 8.7 51 4.7 102970 94
2005-03-09 12:29 51°25.142 3°14.34 8.8 52 4.7 102970 94
2005-03-09 12:30 51°25.14 3°14.261 9.9 50 4.7 102970 95
2005-03-09 12:31 51°25.14 3°14.182 8.6 43 4.7 102960 94
2005-03-09 12:32 51°25.147 3°14.1 9.1 35 4.7 102970 95
2005-03-09 12:33 51°25.167 3°14.022 9.6 32 4.7 102970 95
2005-03-09 12:34 51°25.192 3°13.947 8.6 24 4.7 102960 95
2005-03-09 12:35 51°25.237 3°13.891 9.4 360 4.8 102960 95
2005-03-09 12:36 51°25.293 3°13.882 7.8 341 4.8 102950 95
2005-03-09 12:37 51°25.332 3°13.909 8.7 329 4.9 102960 94
2005-03-09 12:38 51°25.356 3°13.942 8.1 319 4.9 102960 94
2005-03-09 12:39 51°25.371 3°13.978 8.2 230 4.9 102970 94
2005-03-09 12:40 51°25.381 3°14.013 8 313 5 102980 94
2005-03-09 12:41 51°25.386 3°14.05 7 298 5.1 102980 94
2005-03-09 12:42 51°25.387 3°14.084 7.4 282 5.1 102990 93
2005-03-09 12:43 51°25.398 3°14.13 7.1 293 5.2 102980 93
2005-03-09 12:44 51°25.424 3°14.184 8.3 311 5.2 102980 93
2005-03-09 12:45 51°25.452 3°14.23 8.3 324 5.2 102970 92
2005-03-09 12:46 51°25.476 3°14.264 8 337 5.2 102970 91
2005-03-09 12:47 51°25.493 3°14.297 7.3 338 5.2 102960 91
2005-03-09 12:48 51°25.513 3°14.323 7.7 3 5.2 102970 91
2005-03-09 12:49 51°25.531 3°14.328 7.4 30 5.1 102970 90
2005-03-09 12:50 51°25.535 3°14.322 7.6 91 5 102970 90
2005-03-09 12:51 51°25.519 3°14.321 6.6 131 4.9 102970 91
2005-03-09 12:52 51°25.501 3°14.335 7.1 130 4.9 102970 91
2005-03-09 12:53 51°25.489 3°14.35 7.4 131 4.9 102980 91
2005-03-09 12:54 51°25.484 3°14.367 7.4 115 4.9 102970 91
2005-03-09 12:55 51°25.481 3°14.384 6.6 116 4.9 102970 91
2005-03-09 12:56 51°25.479 3°14.405 6.2 115 4.9 102960 91
2005-03-09 12:57 51°25.457 3°14.407 6.5 121 4.9 102970 92
2005-03-09 12:58 51°25.334 3°14.469 3.1 123 4.8 102980 92
2005-03-09 12:59 51°25.128 3°14.567 3.4 82 4.8 102980 92
2005-03-09 13:00 51°24.914 3°14.673 2.9 90 4.8 102970 92
2005-03-09 13:01 51°24.701 3°14.775 3.7 85 4.8 102980 92
2005-03-09 13:02 51°24.488 3°14.878 2.8 79 4.7 102970 92
2005-03-09 13:03 51°24.316 3°15.1 1.7 326 4.7 102990 93
2005-03-09 13:04 51°24.21 3°15.439 2.2 287 4.8 102970 93
2005-03-09 13:05 51°24.097 3°15.776 3.4 265 4.9 102990 93
2005-03-09 13:06 51°24 3°16.129 3 303 5 102980 93
2005-03-09 13:07 51°23.906 3°16.488 4.7 289 5.1 102980 93
2005-03-09 13:08 51°23.81 3°16.843 2.2 300 5.2 102970 93
2005-03-09 13:09 51°23.713 3°17.203 2.5 301 5.3 102970 93
2005-03-09 13:10 51°23.63 3°17.559 5.5 312 5.3 102970 92
2005-03-09 13:11 51°23.625 3°17.919 5.2 295 5.3 102970 92
2005-03-09 13:12 51°23.665 3°18.107 8.9 286 5.3 102960 91
2005-03-09 13:13 51°23.699 3°18.212 7.1 282 5.3 102970 90
2005-03-09 13:14 51°23.721 3°18.293 6.5 280 5.3 102960 90
2005-03-09 13:15 51°23.737 3°18.357 7.5 276 5.3 102960 90
2005-03-09 13:16 51°23.748 3°18.411 8.3 274 5.3 102950 90
2005-03-09 13:17 51°23.757 3°18.458 6.8 280 5.3 102970 90
2005-03-09 13:18 51°23.776 3°18.532 8.8 273 5.2 102960 89
2005-03-09 13:19 51°23.745 3°18.706 2.5 142 5.2 102960 89
2005-03-09 13:20 51°23.61 3°18.815 4 116 5.2 102970 89
2005-03-09 13:21 51°23.474 3°18.879 5.2 129 5.1 102970 89
2005-03-09 13:22 51°23.409 3°18.862 7.6 83 5 102960 89
2005-03-09 13:23 51°23.387 3°18.802 8.8 67 4.9 102960 89
2005-03-09 13:24 51°23.371 3°18.71 9.4 62 4.8 102930 90
2005-03-09 13:25 51°23.351 3°18.612 7.7 63 4.7 102930 91
2005-03-09 13:26 51°23.333 3°18.515 7 52 4.7 102930 91
2005-03-09 13:27 51°23.323 3°18.426 7.2 51 4.6 102930 92
2005-03-09 13:28 51°23.317 3°18.342 7.8 52 4.5 102950 92
2005-03-09 13:29 51°23.313 3°18.259 8 55 4.5 102950 93
2005-03-09 13:30 51°23.306 3°18.176 8.1 54 4.5 102930 93
2005-03-09 13:31 51°23.305 3°18.093 7.4 46 4.5 102930 94
2005-03-09 13:32 51°23.309 3°18.01 8.7 47 4.5 102930 94
2005-03-09 13:33 51°23.31 3°17.929 7.9 46 4.5 102930 94
2005-03-09 13:34 51°23.307 3°17.847 8 50 4.5 102930 94
2005-03-09 13:35 51°23.303 3°17.763 8.1 51 4.5 102930 95
2005-03-09 13:36 51°23.299 3°17.681 8.8 52 4.5 102930 95
2005-03-09 13:37 51°23.294 3°17.598 7.5 51 4.5 102930 95
2005-03-09 13:38 51°23.291 3°17.513 8.2 57 4.6 102930 95
2005-03-09 13:39 51°23.287 3°17.43 7.7 55 4.6 102920 94
2005-03-09 13:40 51°23.284 3°17.347 8.5 57 4.6 102920 94
2005-03-09 13:41 51°23.281 3°17.264 8.1 54 4.6 102920 94
2005-03-09 13:42 51°23.278 3°17.181 8.6 54 4.6 102920 94
2005-03-09 13:43 51°23.272 3°17.099 8.1 57 4.6 102920 94
2005-03-09 13:44 51°23.262 3°17.013 7.6 52 4.6 102920 94
2005-03-09 13:45 51°23.252 3°16.931 8.4 58 4.6 102920 94
2005-03-09 13:46 51°23.24 3°16.848 8.1 64 4.6 102920 94
2005-03-09 13:47 51°23.229 3°16.765 8.2 53 4.6 102920 94
2005-03-09 13:48 51°23.221 3°16.683 9.5 54 4.6 102920 94
2005-03-09 13:49 51°23.218 3°16.597 8.1 51 4.7 102920 94
2005-03-09 13:50 51°23.216 3°16.511 7.7 48 4.7 102920 94
2005-03-09 13:51 51°23.214 3°16.427 7.9 54 4.6 102930 93
2005-03-09 13:52 51°23.211 3°16.342 7.5 52 4.6 102930 94
2005-03-09 13:53 51°23.207 3°16.263 7.2 51 4.6 102940 94
2005-03-09 13:54 51°23.202 3°16.184 7.4 53 4.6 102940 94
2005-03-09 13:55 51°23.197 3°16.107 7.7 49 4.6 102930 94
2005-03-09 13:56 51°23.186 3°16.025 7.7 59 4.6 102940 94
2005-03-09 13:57 51°23.169 3°15.94 8.2 58 4.5 102940 94
2005-03-09 13:58 51°23.157 3°15.856 8.3 53 4.5 102930 94
2005-03-09 13:59 51°23.152 3°15.772 8.6 49 4.5 102930 94
2005-03-09 14:00 51°23.15 3°15.691 8.4 44 4.5 102930 94
2005-03-09 14:01 51°23.151 3°15.615 8 48 4.5 102950 94
2005-03-09 14:02 51°23.153 3°15.569 7.6 50 4.5 102950 94
2005-03-09 14:03 51°23.153 3°15.547 7.1 51 4.5 102960 94
2005-03-09 14:04 51°23.152 3°15.54 6 52 4.5 102950 94
2005-03-09 14:05 51°23.142 3°15.499 6.4 58 4.5 102940 94
2005-03-09 14:06 51°23.127 3°15.417 7.6 52 4.5 102940 94
2005-03-09 14:07 51°23.118 3°15.33 7.9 54 4.5 102940 94
2005-03-09 14:08 51°23.101 3°15.243 7.7 68 4.5 102950 94
2005-03-09 14:09 51°23.075 3°15.161 7 67 4.5 102950 95
2005-03-09 14:10 51°23.052 3°15.094 7.5 72 4.5 102950 95
2005-03-09 14:11 51°23.029 3°15.026 7.2 68 4.5 102950 95
2005-03-09 14:12 51°23.009 3°14.958 7.4 62 4.5 102950 95
2005-03-09 14:13 51°22.991 3°14.889 6.4 70 4.4 102960 95
2005-03-09 14:14 51°22.973 3°14.819 7 66 4.5 102960 95
2005-03-09 14:15 51°22.954 3°14.749 7 65 4.4 102950 95
2005-03-09 14:16 51°22.936 3°14.677 6.8 61 4.5 102950 95
2005-03-09 14:17 51°22.917 3°14.604 6.5 63 4.4 102950 95
2005-03-09 14:18 51°22.899 3°14.529 7.2 59 4.5 102950 95
2005-03-09 14:19 51°22.878 3°14.456 7.5 66 4.5 102940 95
2005-03-09 14:20 51°22.858 3°14.386 6.9 63 4.5 102950 95
2005-03-09 14:21 51°22.837 3°14.317 7.8 59 4.5 102950 95
2005-03-09 14:22 51°22.82 3°14.249 6.8 60 4.5 102960 95
2005-03-09 14:23 51°22.806 3°14.18 7.9 61 4.5 102950 95
2005-03-09 14:24 51°22.792 3°14.11 7.7 59 4.5 102970 95
2005-03-09 14:25 51°22.777 3°14.042 7 63 4.5 102960 95
2005-03-09 14:26 51°22.761 3°13.97 7.4 58 4.5 102960 95
2005-03-09 14:27 51°22.747 3°13.901 8.1 63 4.5 102960 95
2005-03-09 14:28 51°22.73 3°13.831 7.6 63 4.5 102960 95
2005-03-09 14:29 51°22.714 3°13.761 7 61 4.5 102960 95
2005-03-09 14:30 51°22.698 3°13.694 7 59 4.5 102960 95
2005-03-09 14:31 51°22.681 3°13.623 7.3 68 4.5 102960 95
2005-03-09 14:32 51°22.662 3°13.538 7.6 60 4.5 102950 95
2005-03-09 14:33 51°22.645 3°13.447 7.4 60 4.5 102960 95
2005-03-09 14:34 51°22.629 3°13.36 7.8 53 4.5 102960 95
2005-03-09 14:35 51°22.631 3°13.27 8.1 36 4.5 102960 95
2005-03-09 14:36 51°22.667 3°13.216 7.1 343 4.6 102980 95
2005-03-09 14:37 51°22.699 3°13.219 7.1 321 4.7 102970 95
2005-03-09 14:38 51°22.718 3°13.241 6.6 303 4.7 102970 95
2005-03-09 14:39 51°22.729 3°13.266 7.1 302 4.8 102990 95
2005-03-09 14:40 51°22.737 3°13.292 6.3 296 4.9 102980 94
2005-03-09 14:41 51°22.742 3°13.315 7.1 287 4.9 102980 94
2005-03-09 14:42 51°22.744 3°13.338 6.6 288 5 102990 94
2005-03-09 14:43 51°22.745 3°13.36 6.7 282 5 102990 94
2005-03-09 14:44 51°22.748 3°13.382 6.2 284 5 102990 93
2005-03-09 14:45 51°22.748 3°13.404 6.2 273 5 102990 93
2005-03-09 14:46 51°22.749 3°13.425 6.2 282 5.1 102980 93
2005-03-09 14:47 51°22.748 3°13.445 5.8 278 5.1 102980 92
2005-03-09 14:48 51°22.746 3°13.464 7.4 275 5.1 102990 92
2005-03-09 14:49 51°22.748 3°13.485 6.4 280 5 102990 92
2005-03-09 14:50 51°22.757 3°13.512 6.1 291 5 102990 91
2005-03-09 14:51 51°22.778 3°13.538 7.2 307 5 102980 91
2005-03-09 14:52 51°22.805 3°13.558 6.6 322 5 102990 91
2005-03-09 14:53 51°22.836 3°13.564 7.1 334 4.9 102980 91
2005-03-09 14:54 51°22.864 3°13.554 6.6 352 4.9 102990 91
2005-03-09 14:55 51°22.883 3°13.529 6.6 16 4.8 102990 91
2005-03-09 14:56 51°22.892 3°13.488 7.1 35 4.8 102980 91
2005-03-09 14:57 51°22.887 3°13.433 6.8 55 4.7 102990 92
2005-03-09 14:58 51°22.867 3°13.382 7.7 98 4.6 103000 92
2005-03-09 14:59 51°22.831 3°13.369 5.3 130 4.6 103000 93
2005-03-09 15:00 51°22.767 3°13.311 9.7 54 4.6 103010 93
2005-03-09 15:01 51°22.684 3°13.031 12.1 36 4.6 102930 93
2005-03-09 15:02 51°22.603 3°12.692 11.6 42 4.6 102930 93
2005-03-09 15:03 51°22.526 3°12.362 12.2 40 4.6 102930 93
2005-03-09 15:04 51°22.445 3°12.024 11.9 44 4.6 102920 93
2005-03-09 15:05 51°22.36 3°11.683 11.7 39 4.6 102930 93
2005-03-09 15:06 51°22.277 3°11.33 12.4 39 4.6 102940 93
2005-03-09 15:07 51°22.205 3°10.969 11.5 40 4.6 102930 93
2005-03-09 15:08 51°22.125 3°10.621 12 38 4.5 102940 93
2005-03-09 15:09 51°22.04 3°10.263 13.2 44 4.5 102940 93
2005-03-09 15:10 51°21.947 3°9.931 11.5 40 4.5 102940 93
2005-03-09 15:11 51°21.847 3°9.595 12.5 38 4.5 102980 94
2005-03-09 15:12 51°21.752 3°9.265 12.2 44 4.5 102940 94
2005-03-09 15:13 51°21.65 3°8.929 11.2 43 4.5 102940 94
2005-03-09 15:14 51°21.526 3°8.624 11 50 4.5 102940 94
2005-03-09 15:15 51°21.392 3°8.329 10.3 49 4.4 102940 94
2005-03-09 15:16 51°21.261 3°8.036 11.5 52 4.4 102950 94
2005-03-09 15:17 51°21.123 3°7.739 11.8 58 4.5 102940 94
2005-03-09 15:18 51°20.971 3°7.452 10.7 59 4.5 102940 94
2005-03-09 15:19 51°20.82 3°7.181 9.7 52 4.5 102940 94
2005-03-09 15:20 51°20.67 3°6.914 10.2 57 4.5 102950 94
2005-03-09 15:21 51°20.514 3°6.654 9.4 59 4.5 102940 94
2005-03-09 15:22 51°20.346 3°6.411 9.8 54 4.5 102950 94
2005-03-09 15:23 51°20.181 3°6.153 9.6 59 4.5 102950 94
2005-03-09 15:24 51°20.022 3°5.903 8.7 51 4.5 102950 94
2005-03-09 15:25 51°19.86 3°5.647 9.1 54 4.4 102950 94
2005-03-09 15:26 51°19.712 3°5.367 9.8 52 4.4 102950 94
2005-03-09 15:27 51°19.572 3°5.066 9 40 4.4 102950 94
2005-03-09 15:28 51°19.441 3°4.767 9 45 4.4 102950 94
2005-03-09 15:29 51°19.308 3°4.467 9.2 39 4.4 102960 94
2005-03-09 15:30 51°19.176 3°4.159 9.2 47 4.4 102960 94
2005-03-09 15:31 51°19.054 3°3.858 9.1 44 4.4 102950 95
2005-03-09 15:32 51°18.927 3°3.552 9.6 42 4.4 102960 95
2005-03-09 15:33 51°18.801 3°3.254 10.7 49 4.3 102960 95
2005-03-09 15:34 51°18.678 3°2.949 10 43 4.3 102950 95
2005-03-09 15:35 51°18.554 3°2.642 10.2 46 4.3 102960 95
2005-03-09 15:36 51°18.428 3°2.335 10.1 40 4.3 103010 95
2005-03-09 15:37 51°18.303 3°2.025 10.3 42 4.4 103000 95
2005-03-09 15:38 51°18.18 3°1.719 10 41 4.3 103010 95
2005-03-09 15:39 51°18.058 3°1.407 10.6 48 4.3 103000 95
2005-03-09 15:40 51°17.933 3°1.098 11 47 4.3 103000 95
2005-03-09 15:41 51°17.806 3°0.791 10.6 44 4.3 103000 95
2005-03-09 15:42 51°17.682 3°0.48 9.8 41 4.3 103000 95
2005-03-09 15:43 51°17.555 3°0.161 10.9 45 4.4 103000 96
2005-03-09 15:44 51°17.432 2°59.854 10.4 40 4.3 103010 96
2005-03-09 15:45 51°17.307 2°59.543 10.8 43 4.4 103010 96
2005-03-09 15:46 51°17.182 2°59.226 10.9 38 4.4 103010 96
2005-03-09 15:47 51°17.075 2°58.905 10.3 37 4.4 103010 96
2005-03-09 15:48 51°16.966 2°58.575 10.5 32 4.4 103010 96
2005-03-09 15:49 51°16.854 2°58.247 11.6 40 4.4 103010 96
2005-03-09 15:50 51°16.747 2°57.927 11.2 35 4.4 103010 96
2005-03-09 15:51 51°16.64 2°57.596 10.5 34 4.3 103000 96
2005-03-09 15:52 51°16.534 2°57.273 10.2 29 4.3 103010 96
2005-03-09 15:53 51°16.422 2°56.952 10.6 41 4.3 103020 96
2005-03-09 15:54 51°16.294 2°56.65 10.2 34 4.3 103010 96
2005-03-09 15:55 51°16.161 2°56.343 10.2 36 4.3 103010 96
2005-03-09 15:56 51°16.031 2°56.046 10.5 42 4.3 102980 96
2005-03-09 15:57 51°15.9 2°55.746 9.8 41 4.3 102970 96
2005-03-09 15:58 51°15.747 2°55.478 9.8 50 4.3 102970 96
2005-03-09 15:59 51°15.549 2°55.292 7.7 52 4.3 102980 96
2005-03-09 16:00 51°15.348 2°55.134 8.4 59 4.3 102990 96
2005-03-09 16:01 51°15.14 2°54.991 7.3 60 4.3 102990 96
2005-03-09 16:02 51°14.92 2°54.88 6.7 65 4.3 103000 96
2005-03-09 16:03 51°14.7 2°54.823 5.2 73 4.4 103010 96
2005-03-09 16:04 51°14.496 2°54.912 2.3 74 4.4 103020 95
2005-03-09 16:05 51°14.347 2°55.122 0.9 345 4.4 103030 95
2005-03-09 16:06 51°14.21 2°55.335 1.1 81 4.4 103030 95
2005-03-09 16:07 51°14.088 2°55.44 2.8 135 4.4 103040 95
2005-03-09 16:08 51°13.971 2°55.526 0.4 82 4.5 103050 96
2005-03-09 16:09 51°13.852 2°55.617 0.7 50 4.6 103060 95
2005-03-09 16:10 51°13.746 2°55.741 0.9 204 4.6 103050 95
2005-03-09 16:11 51°13.676 2°55.876 0.9 226 4.7 103050 95
2005-03-09 16:12 51°13.634 2°55.983 2.5 225 4.8 103050 95
2005-03-09 16:13 51°13.611 2°56.051 3.6 197 4.8 103060 95
2005-03-09 16:14 51°13.598 2°56.096 3.5 207 4.9 103060 95
2005-03-09 16:15 51°13.594 2°56.105 3.7 204 5.1 103050 95
2005-03-09 16:16 51°13.594 2°56.103 3.3 192 5.3 103060 94